User: anonymous   Login
Location: Arcueil
(48.7999°N, 2.3326°E)
Time: 11:35:17
(UTC+00:00)
Language:

ZACube-1 - Orbit

View from above orbital plane
View from above orbital plane
View from above satellite
View from above satellite

Ground track
Ground track

The orbit data is extracted from the following two-line orbital elements,

1 39417U 13066B   24169.92598022  .00003868  00000-0  40435-3 0  9993
2 39417  97.7336 125.8782 0051350 156.1969 204.1639 14.89263032571696
Epoch (UTC): 17 June 2024 22:13:24
Eccentricity: 0.0051350
inclination: 97.7336°
perigee height: 564 km
apogee height: 636 km
right ascension of ascending node: 125.8782°
argument of perigee: 156.1969°
revolutions per day: 14.89263032
mean anomaly at epoch: 204.1639°
orbit number at epoch: 57169

The dashed part of the orbit path shows where the satellite is in the earth's shadow,  

DLR